FENGYUN 1C DEB, 31169

Orbit data source: Space-Track

FENGYUN 1C DEB, 31169 is space debris in SSO originally from a launch on Mon, 10 May 1999 UTC launched from the Taiyaun Space Center, China (TSC). Fengyun 1C debris stems from the Chinese weather satellite Fengyun-1C, which was intentionally destroyed by a Chinese anti-satellite missile in 2007. This event dramatically increased the amount of space debris, with thousands of trackable fragments posing hazards to satellites and human spaceflight. The Fengyun 1C debris cloud has become a focal point in discussions about space sustainability and the need for international regulations to prevent the creation of new debris.

Loading next visibility...
Identifier
31169, 1999-025BHX
Orbit
SSO
Country
Flag of CNCN / PRC
Related business
Manufacturer
Unknown
Mission
Spacecraft
Bus & Motor
Unknown
Mass
Unknown
Launch date (UTC)
1999-05-10 (27 years ago)
Launch vehicle
Unknown
Launch site
Taiyaun Space Center, China (TSC)
Object type
Payload
Rocket body
Debris
Shape & HBR
Unknown shape, 0.1 m
Radar Cross Section
Small (<0.1 m²)

Expand to show TLE details & history
Last TLE update: 3 days ago

TLE from 3 days ago
0 FENGYUN 1C DEB
1 31169U 99025BHX 25310.52872842  .00006906  00000-0  28614-2 0  9998
2 31169  99.1594 335.3237 0059727 121.4642 239.2393 14.25921310565886
Epoch: 2025-11-06T12:41Z
TLE epoch observation values (Epoch: 2025-11-06T12:41:22.135Z)
Latitude
-0.00002°
Longitude
98.99573°
Altitude
830.442 km
Speed
7.426 km/s
True Right ascension
22h 21m 17s
True Declination
0° 00' 00"
Sunlit
Object was in daylight at epoch
Visualization orbit readout
Latitude
Unknown
Longitude
Unknown
Altitude
Unknown
Speed
Unknown
Apparent Right ascension
Unknown
Apparent Declination
Unknown
Sunlit
N/A
Visualization observer readout
Local Sidereal Time
16:38:29
Azimuth
Unknown
Elevation
Unknown
Doppler factor
Unknown
Orbital elements
Apogee altitude
845.458 km
Perigee altitude
759.681 km
Semi-major axis
7,180.706 km
Eccentricity
0.00597
Inclination
99.1594°
RAAN
335.3237°
Arg. of periapsis
121.4642°
True anomaly
238.65342°
Mean anomaly
239.2393°
Eccentric anomaly
238.94613°
Mean motion
3.56691 °/min
Orbital period
100.93 mins
BSTAR
0.0028614
Loading maneuver chart data...
Computing Atmospheric mass density...

Documentation

Showing up to 5 results
|